STARLINK-32591, 61718

Orbit data source: Space-Track

STARLINK-32591, 61718 is a payload satellite owned by SpaceX/Seattle (US) in LEO that was launched on Wed, 30 Oct 2024 UTC via an FALCON 9 launch vehicle from the Air Force Eastern Test Range (AFETR). Payload-class satellites include a variety of spacecraft equipped with specific instruments for various scientific and technological missions. These include communications satellites like Starlink; space stations such as the ISS; scientific satellites like the Hubble; Earth observation satellites from companies like Planet Labs, Umbra, and HawkEye 360; GPS; miniature CubeSats for education and research; and military/defense satellites.

Loading next visibility...
Identifier
61718, 2024-196M
Orbit
LEO
Last TLE update
15 hours ago
Origin
Manufacturer
SpaceX/Seattle
Mission
Operational Commercial Communications
Bus & Motor
STARLINK V2M, Unknown motor
Mass
730 kg wet, ~700 kg dry
Launch date (UTC)
2024-10-30 (8 months ago)
Launch vehicle
FALCON 9
Launch site
Air Force Eastern Test Range (AFETR)
Object type
Payload
Rocket body
Debris
Shape & HBR
Box + 2 Pan, 29 m
Radar Cross Section
36.964 m², Large (>1 m²)

Expand to show TLE details & history

TLE from 15 hours ago
0 STARLINK-32591
1 61718U 24196M   25188.16569138 -.00000138  00000-0  74660-5 0  9999
2 61718  53.1585 149.1066 0001211  83.0223 277.0915 15.30193895 39740
Epoch: 2025-07-07T03:58Z
TLE epoch observation values (Epoch: 2025-07-07T03:58:35.735Z)
Latitude
-0.00005°
Longitude
164.07873°
Altitude
476.03 km
Speed
7.629 km/s
True Right ascension
09h 56m 25s
True Declination
0° 00' 00"
Sunlit
Object was in daylight at epoch
Visualization orbit readout
Latitude
-48.52719°
Longitude
103.6461°
Altitude
492.641 km
Speed
7.618 km/s
Apparent Right ascension
23h 58m 36s
Apparent Declination
-78° 28' 59"
Sunlit
Object is in daylight
Visualization observer readout
Local Sidereal Time
07:24:38
Azimuth
194.769° SSW
Elevation
-43.227°
Doppler factor
1
Orbital elements
Apogee altitude
476.32 km
Perigee altitude
474.66 km
Semi-major axis
6,853.627 km
Eccentricity
0.00012
Inclination
53.1585°
RAAN
149.1066°
Arg. of periapsis
83.0223°
True anomaly
Unknown
Mean anomaly
277.0915°
Eccentric anomaly
Unknown
Mean motion
3.82527 °/min
Orbital period
94.11 mins
BSTAR
0.000007466
Loading maneuver chart data...
Loading SW <> Apogee altitude chart data...
Loading historical data...
Loading historical data...
Loading historical data...
Loading historical data...
Loading historical data...
Loading historical data...
Loading historical data...

STARLINK-32591 Visibility forecast

Observer location: undefined°, undefined°

Span
Click to sort rows by Start time (UTC) header in descending order
Start Az.
Max El. time (UTC)
Max El. Az.
Max El.
End time (UTC)
End Az.
5 mins2025-07-08 00:34:04.065Z253.962° W2025-07-08 00:36:04.065Z316.969° NNW38.66°2025-07-08 00:39:04.065Z39.304° NE
4 mins2025-07-08 05:31:04.065Z344.55° N2025-07-08 05:33:04.065Z26.893° NE20.434°2025-07-08 05:35:04.065Z67.988° E
5 mins2025-07-08 07:09:04.065Z298.626° NW2025-07-08 07:11:04.065Z235.62° WSW41.589°2025-07-08 07:14:04.065Z144.109° SSE
|